Showing default

TSAT-1A, 59442

Orbit data source: Space-Track

TSAT-1A, 59442 is a payload satellite owned by TASL (IN) in LEO that was launched on Sun, 07 Apr 2024 UTC via an FALCON 9 launch vehicle from the Air Force Eastern Test Range (AFETR). Payload-class satellites include a variety of spacecraft equipped with specific instruments for various scientific and technological missions. These include communications satellites like Starlink; space stations such as the ISS; scientific satellites like the Hubble; Earth observation satellites from companies like Planet Labs, Umbra, and HawkEye 360; GPS; miniature CubeSats for education and research; and military/defense satellites.

Loading next visibility...
Identifier
59442, 2024-066A
Orbit
LEO
Country
Flag of ININ / IND
Related business
Manufacturer
URUGUS S.A.
Mission
Operational Commercial Imaging
Bus & Motor
NEWSAT V, Unknown motor
Mass
~42 kg wet, ~38 kg dry
Launch date (UTC)
2024-04-07 (2 years ago)
Launch vehicle
FALCON 9
Launch site
Air Force Eastern Test Range (AFETR)
Object type
Payload
Rocket body
Debris
Shape & HBR
Box, 0.4 m
Radar Cross Section
0.542 m², Medium (>0.1 m² and < 1m²)

Expand to show TLE details & history
Last TLE update: 7 hours ago

TLE from 7 hours ago
0 TSAT-1A
1 59442U 24066A   26037.27981345  .00023437  00000-0  74581-3 0  9996
2 59442  45.6165 114.4034 0007933  88.6853 271.4950 15.32242882101670
Epoch: 2026-02-06T06:42Z
TLE epoch observation values (Epoch: 2026-02-06T06:42:55.882Z)
Latitude
-0.00001°
Longitude
-122.74941°
Altitude
469.052 km
Speed
7.633 km/s
True Right ascension
07h 37m 36s
True Declination
0° 00' 00"
Sunlit
Object was in full shadow at epoch
Visualization orbit readout
Latitude
Unknown
Longitude
Unknown
Altitude
Unknown
Speed
Unknown
Apparent Right ascension
Unknown
Apparent Declination
Unknown
Sunlit
N/A
Visualization observer readout
Local Sidereal Time
16:07:58
Azimuth
Unknown
Elevation
Unknown
Doppler factor
Unknown
Orbital elements
Apogee altitude
476.064 km
Perigee altitude
465.198 km
Semi-major axis
6,848.768 km
Eccentricity
0.00079
Inclination
45.6165°
RAAN
114.4034°
Arg. of periapsis
88.6853°
True anomaly
271.40412°
Mean anomaly
271.495°
Eccentric anomaly
271.44956°
Mean motion
3.82935 °/min
Orbital period
94.01 mins
BSTAR
0.00074581
Loading maneuver chart data...
Computing Atmospheric mass density...
Loading historical data...
Loading historical data...
Loading historical data...
Loading historical data...
Loading historical data...
Loading historical data...
Loading historical data...

Documentation

Showing up to 5 results
|